sat.trackr.live / text

‹ back to catalog

ZHONGXING-11

NORAD 39157 · 2013-020A

PAYLOAD ACTIVE UNKNOWN

§ Identity

Operator
Country
PRC
Launch date
2013-05-01
Launch site
XICLF
Launch vehicle
Mass (kg)
RCS (m²)
25.12

Purposes: comms

External: N2YO · Heavens-Above · Gunter

§ Orbital elements

Epoch: 2026-05-25T02:29:52.480896Z

Period
1,436.07 min
Inclination
0.0147°
Eccentricity
0.0002101
Mean motion
1.00273583 rev/d
Perigee alt
35,777.2 km
Apogee alt
35,794.9 km
Semi-major
42,164.2 km
B*
0.0000e+0
RAAN
313.8046°
Arg perigee
100.6063°
Mean anomaly
323.6282°
Rev number
4,766

§ Raw data

ZHONGXING-111 39157U 13020A   26145.10407964 -.00000293  00000+0  00000+0 0  99932 39157   0.0147 313.8046 0002101 100.6063 323.6282  1.00273583 47662

JSON: /api/v1/satellites/39157 · /tle

For live sub-satellite position, see the globe view (requires WebGL).

§ Visibility from observer

Set your observer location to see the next 7 days of passes ≥ 10°. The values pass through the URL so the page stays shareable.

No JS? Fill the form by hand. The geolocation button needs JavaScript.